Columbia, MO

2:11 AM CDT on March 23, 2017 (GMT -0500)
Columbia Regional

Weather History for KCOU - November, 2013

Change the Weather History Date:

Monday, November 4, 2013

  Actual Average Record
Temperature  
Mean Temperature 56 °F 50 °F  
Max Temperature 63 °F 60 °F 83 °F (1978)
Min Temperature 48 °F 40 °F 13 °F (1991)
Degree Days  
Heating Degree Days 9 15  
Month to date heating degree days 60 59  
Since 1 July heating degree days 384 424  
Cooling Degree Days 0 0  
Month to date cooling degree days 0 0  
Year to date cooling degree days 1322 1247  
Growing Degree Days 6 (Base 50)    
Moisture  
Dew Point 43 °F    
Average Humidity 66    
Maximum Humidity 80    
Minimum Humidity 52    
Precipitation  
Precipitation 0.03 in 0.11 in 2.27 in (1935)
Month to date precipitation 0.03 0.41  
Year to date precipitation 38.37 37.34  
Snow  
Snow 0.00 in 0.00 in 0.40 in (1966)
Month to date snowfall 0.0 0.0  
Since 1 July snowfall 0.0 0.0  
Since 1 September snowfall 0.0 0.0  
Snow Depth 0.00 in    
Sea Level Pressure  
Sea Level Pressure 30.09 in    
Wind  
Wind Speed 12 mph (SSE)    
Max Wind Speed 22 mph    
Max Gust Speed 28 mph    
Visibility 10 miles    
Events Rain    
T = Trace of Precipitation, MM = Missing Value Source: NWS Daily Summary

Daily Weather History Graph

Daily Weather History Graph

Search for Another Location

Airport or City:

Trip Planner

Search our weather history database for the weather conditions in past years. The results will help you decide how hot, cold, wet, or windy it might be!

Date:

Astronomy

Nov. 04, 2013 Rise Set
Actual Time 6:39 AM CST 5:04 PM CST
Civil Twilight 6:11 AM CST 5:32 PM CST
Nautical Twilight 5:40 AM CST 6:04 PM CST
Astronomical Twilight 5:08 AM CST 6:35 PM CST
Moon 7:49 AM CST (11/4) 6:10 PM CST (11/4)
Length of Visible Light 11h 20m
Length of Day
10h 25m
New Moon, 2% of the Moon is Illuminated
Nov 4
New Moon
Nov 9
First Quarter
Nov 17
Full
Nov 25
Last Quarter
Dec 2
New

Hourly Weather History & Observations

Time (CST) Temp. Dew Point Humidity Pressure Visibility Wind Dir Wind Speed Gust Speed Precip Events Conditions
12:54 AM 50.0 °F 37.0 °F 61% 30.06 in 10.0 mi SSE 17.3 mph - N/A   Clear
1:54 AM 50.0 °F 37.0 °F 61% 30.05 in 10.0 mi SSE 15.0 mph 25.3 mph N/A   Clear
2:54 AM 50.0 °F 37.0 °F 61% 30.05 in 10.0 mi SSE 15.0 mph - N/A   Clear
3:54 AM 48.9 °F 37.0 °F 64% 30.06 in 10.0 mi SSE 8.1 mph - N/A   Clear
4:54 AM 50.0 °F 37.0 °F 61% 30.06 in 10.0 mi SSE 10.4 mph - N/A   Clear
5:54 AM 50.0 °F 37.9 °F 63% 30.05 in 10.0 mi SSE 12.7 mph - N/A   Scattered Clouds
6:54 AM 50.0 °F 37.9 °F 63% 30.05 in 10.0 mi SSE 11.5 mph - 0.00 in   Mostly Cloudy
7:54 AM 48.9 °F 39.9 °F 71% 30.07 in 10.0 mi SSE 12.7 mph - 0.00 in Rain Light Rain
8:54 AM 48.0 °F 43.0 °F 83% 30.08 in 10.0 mi SE 10.4 mph - 0.02 in Rain Light Rain
9:54 AM 50.0 °F 45.0 °F 83% 30.08 in 10.0 mi SSE 11.5 mph - 0.01 in Rain Light Rain
10:54 AM 51.1 °F 45.0 °F 80% 30.09 in 10.0 mi SSE 10.4 mph - 0.00 in   Overcast
11:54 AM 54.0 °F 45.0 °F 72% 30.07 in 10.0 mi South 16.1 mph - N/A   Overcast
12:54 PM 59.0 °F 45.0 °F 60% 30.05 in 10.0 mi South 17.3 mph 25.3 mph N/A   Mostly Cloudy
1:54 PM 62.1 °F 45.0 °F 53% 30.05 in 10.0 mi SSW 19.6 mph 24.2 mph N/A   Clear
2:54 PM 61.0 °F 45.0 °F 56% 30.05 in 10.0 mi South 10.4 mph - N/A   Mostly Cloudy
3:54 PM 60.1 °F 46.0 °F 60% 30.06 in 10.0 mi South 8.1 mph - N/A   Overcast
4:54 PM 60.1 °F 46.0 °F 60% 30.07 in 10.0 mi SSE 9.2 mph - N/A   Overcast
5:54 PM 59.0 °F 46.0 °F 62% 30.09 in 10.0 mi SSE 10.4 mph - N/A   Overcast
6:54 PM 59.0 °F 46.9 °F 64% 30.12 in 10.0 mi South 11.5 mph - N/A   Overcast
7:54 PM 57.9 °F 46.0 °F 65% 30.14 in 10.0 mi South 11.5 mph - N/A   Overcast
8:54 PM 57.0 °F 46.0 °F 67% 30.15 in 10.0 mi South 11.5 mph - N/A   Overcast
9:54 PM 55.9 °F 46.0 °F 69% 30.17 in 10.0 mi South 11.5 mph - N/A   Overcast
10:54 PM 55.9 °F 46.0 °F 69% 30.17 in 10.0 mi South 10.4 mph - N/A   Overcast
11:54 PM 55.9 °F 46.9 °F 72% 30.18 in 10.0 mi South 10.4 mph - N/A   Overcast